{"data":{"norad_id":64673,"intl_designator":"2025-139K","name":"STARLINK-34288","alt_names":[],"object_type":"PAYLOAD","status":"ACTIVE","operator":null,"country":"US","launch_date":"2025-06-28","launch_site_code":"AFETR","launch_vehicle":null,"mission":null,"orbit_class":"UNKNOWN","rcs_meters":null,"size_class":null,"mass_kg":null,"dimensions":null,"purposes":["comms"],"wikipedia_slug":null,"has_3d_model":false,"image_url":null,"decayed_at":null,"tle_current":{"epoch":"2026-09-20T08:54:32.194080Z","epoch_age_seconds":142333,"freshness":"FRESH","line1":"1 64673U 25139K   26263.37120595  .00019094  00000+0  57453-3 0  9996","line2":"2 64673  53.1594 298.3029 0002706  91.6761 268.4552 15.34414308 70151","mean_motion":15.34414308,"eccentricity":0.0002706,"inclination_deg":53.1594,"raan_deg":298.3029,"arg_perigee_deg":91.6761,"mean_anomaly_deg":268.4552,"bstar":0.00057453,"rev_number":7015,"period_min":93.846882976276,"perigee_km":460.80959428484,"apogee_km":464.51183400773,"semimajor_km":6840.7977141463,"source":"CELESTRAK","updated_at":"2026-09-21T09:00:35.398762Z"}}}